STARLINK-32390, 61630

Orbit data source: Space-Track

STARLINK-32390, 61630 is a payload satellite owned by SpaceX/Seattle (US) in LEO that was launched on Wed, 23 Oct 2024 UTC via an FALCON 9 launch vehicle from the Air Force Eastern Test Range (AFETR). Payload-class satellites include a variety of spacecraft equipped with specific instruments for various scientific and technological missions. These include communications satellites like Starlink; space stations such as the ISS; scientific satellites like the Hubble; Earth observation satellites from companies like Planet Labs, Umbra, and HawkEye 360; GPS; miniature CubeSats for education and research; and military/defense satellites.

Loading next visibility...
Identifier
61630, 2024-191K
Orbit
LEO
Last TLE update
11 hours ago
Origin
Manufacturer
SpaceX/Seattle
Mission
Operational Commercial Communications
Bus & Motor
STARLINK V2M, Unknown motor
Mass
730 kg wet, ~700 kg dry
Launch date (UTC)
2024-10-23 (8 months ago)
Launch vehicle
FALCON 9
Launch site
Air Force Eastern Test Range (AFETR)
Object type
Payload
Rocket body
Debris
Shape & HBR
Box + 2 Pan, 29 m
Radar Cross Section
36.964 m², Large (>1 m²)

Expand to show TLE details & history

TLE from 11 hours ago
0 STARLINK-32390
1 61630U 24191K   25170.57280935 -.00000417  00000-0 -56348-5 0  9992
2 61630  42.9990 200.6583 0001189 273.4181  86.6535 15.27583272 37296
Epoch: 2025-06-19T13:44Z
TLE epoch observation values (Epoch: 2025-06-19T13:44:50.727Z)
Latitude
-0.00001°
Longitude
86.40837°
Altitude
482.767 km
Speed
7.626 km/s
True Right ascension
13h 22m 37s
True Declination
0° 00' 00"
Sunlit
Object was in daylight at epoch
Visualization orbit readout
Latitude
24.49414°
Longitude
112.85499°
Altitude
483.256 km
Speed
7.628 km/s
Apparent Right ascension
18h 30m 00s
Apparent Declination
-14° 14' 51"
Sunlit
Object is in full shadow
Visualization observer readout
Local Sidereal Time
11:47:10
Azimuth
94.396° ESE
Elevation
-17.219°
Doppler factor
1
Orbital elements
Apogee altitude
485.801 km
Perigee altitude
484.169 km
Semi-major axis
6,863.122 km
Eccentricity
0.00012
Inclination
42.999°
RAAN
200.6583°
Arg. of periapsis
273.4181°
True anomaly
Unknown
Mean anomaly
86.6535°
Eccentric anomaly
Unknown
Mean motion
3.81734 °/min
Orbital period
94.31 mins
BSTAR
-0.0000056348
Loading maneuver chart data...
Loading SW <> Apogee altitude chart data...
Loading historical data...
Loading historical data...
Loading historical data...
Loading historical data...
Loading historical data...
Loading historical data...
Loading historical data...

STARLINK-32390 Visibility forecast

Observer location: undefined°, undefined°

Span
Click to sort rows by Start time (UTC) header in descending order
Start Az.
Max El. time (UTC)
Max El. Az.
Max El.
End time (UTC)
End Az.
5 mins2025-06-20 05:40:40.167Z220.299° SW2025-06-20 05:42:40.167Z150.642° SSE38.133°2025-06-20 05:45:40.167Z79.934° E
5 mins2025-06-20 07:19:40.167Z280.039° WNW2025-06-20 07:21:40.167Z358.781° N40.365°2025-06-20 07:24:40.167Z69.501° E
5 mins2025-06-20 08:58:40.167Z295.934° NW2025-06-20 09:00:40.167Z357.909° N40.403°2025-06-20 09:03:40.167Z86.792° E
5 mins2025-06-20 10:37:40.167Z273.101° WNW2025-06-20 10:39:40.167Z211.682° SW37.738°2025-06-20 10:42:40.167Z133.158° SE
|